Date,TemperatureHighF,TemperatureAvgF,TemperatureLowF,DewpointHighF,DewpointAvgF,DewpointLowF,HumidityHigh,HumidityAvg,HumidityLow,PressureMaxIn,PressureMinIn,WindSpeedMaxMPH,WindSpeedAvgMPH,GustSpeedMaxMPH,PrecipitationSumIn
2013-1-1,29,25,21,-100,-100,-100,0,0,100,0.00,40.00,0,-999,0,0.01
2013-1-2,43,28,18,-100,-100,-100,0,0,100,0.00,40.00,0,-999,0,0.00
2013-1-3,40,30,23,-100,-100,-100,0,0,100,0.00,40.00,0,-999,0,0.00
2013-1-4,43,34,25,-100,-100,-100,0,0,100,0.00,40.00,0,-999,0,0.00
2013-1-5,49,38,32,-100,-100,-100,0,0,100,0.00,40.00,0,-999,0,0.00
2013-1-6,52,38,27,-100,-100,-100,0,0,100,0.00,40.00,0,-999,0,0.00
2013-1-7,47,37,31,-100,-100,-100,0,0,100,0.00,40.00,0,-999,0,0.00
2013-1-8,50,40,32,-100,-100,-100,0,0,100,0.00,40.00,0,-999,0,0.00
2013-1-9,45,40,34,-100,-100,-100,0,0,100,0.00,40.00,0,-999,0,0.30
2013-1-10,49,44,42,-100,-100,-100,0,0,100,0.00,40.00,0,-999,0,0.81
2013-1-11,65,51,41,-100,-100,-100,0,0,100,0.00,40.00,0,-999,0,0.01
2013-1-12,47,33,24,-100,-100,-100,0,0,100,0.00,40.00,0,-999,0,0.00
2013-1-13,29,22,16,-100,-100,-100,0,0,100,0.00,40.00,0,-999,0,0.00
2013-1-14,31,24,18,-100,-100,-100,0,0,100,0.00,40.00,0,-999,0,0.00
2013-1-15,34,26,19,-100,-100,-100,0,0,100,0.00,40.00,0,-999,0,0.00
2013-1-16,51,33,18,-100,-100,-100,0,0,100,0.00,40.00,0,-999,0,0.00
2013-1-17,54,41,33,-100,-100,-100,0,0,100,0.00,40.00,0,-999,0,0.00
2013-1-18,59,44,32,-100,-100,-100,0,0,100,0.00,40.00,0,-999,0,0.00
2013-1-19,64,46,34,-100,-100,-100,0,0,100,0.00,40.00,0,-999,0,0.00
2013-1-20,61,46,31,-100,-100,-100,0,0,100,0.00,40.00,0,-999,0,0.00
2013-1-21,41,30,21,-100,-100,-100,0,0,100,0.00,40.00,0,-999,0,0.00
2013-1-22,60,42,26,-100,-100,-100,0,0,100,0.00,40.00,0,-999,0,0.00
2013-1-23,67,45,30,-100,-100,-100,0,0,100,0.00,40.00,0,-999,0,0.00
2013-1-24,45,34,29,-100,-100,-100,0,0,100,0.00,40.00,0,-999,0,0.00
2013-1-25,50,36,24,-100,-100,-100,0,0,100,0.00,40.00,0,-999,0,0.00
2013-1-26,53,41,28,-100,-100,-100,0,0,100,0.00,40.00,0,-999,0,0.00
2013-1-27,74,55,44,-100,-100,-100,0,0,100,0.00,40.00,0,-999,0,0.00
2013-1-28,73,59,45,-100,-100,-100,0,0,100,0.00,40.00,0,-999,0,0.00
2013-1-29,63,52,37,-100,-100,-100,0,0,100,0.00,40.00,0,-999,0,0.08
2013-1-30,45,37,29,-100,-100,-100,0,0,100,0.00,40.00,0,-999,0,0.05
2013-1-31,60,42,24,-100,-100,-100,0,0,100,0.00,40.00,0,-999,0,0.00